Regional Weather Roundup
Issued by NWS State College, PA

Home | Current Version | Previous Version | Text Only | Print | Product List | Glossary Off
Versions: 1 2 3 4 5 6 7 8 9 10 11 12 13 14 15 16 17 18 19 20 21 22 23 24 25 26 27 28 29 30 31 32 33 34 35 36 37 38 39 40 41 42 43 44 45 46 47 48 49 50

000
ASUS41 KCTP 280510
RWRCTP

REGIONAL WEATHER ROUNDUP
NATIONAL WEATHER SERVICE STATE COLLEGE PA
100 AM EDT WED SEP 28 2016

Note: "fair" indicates few or no clouds below 12,000 feet with no
significant weather and/or obstructions to visibility.

* = STATION THAT DOES NOT REPORT PRECIPITATION /E.G. RAIN...SNOW...ETC/
    THUNDER OR FOG.

PAZ002>004-007>009-013>016-020>023-029>032-280600-
WESTERN PENNSYLVANIA

CITY           SKY/WX    TMP DP  RH WIND       PRES   REMARKS
ERIE           CLEAR     58  44  60 S13       29.87S
MEADVILLE      PTCLDY    57  39  51 VRB3      29.90S
FRANKLIN*        N/A     54  37  54 S6        29.93S
NEW CASTLE     FAIR      50  42  74 S3        29.91F
BEAVER COUNTY  NOT AVBL
BUTLER*        CLEAR     52  39  62 CALM      29.95S
PITTSBURGH INT PTCLDY    54  43  66 CALM      29.91F
PITTSBURGH     CLEAR     53  47  79 S8        29.92F
INDIANA*       CLEAR     50  46  87 CALM      29.98S
LATROBE        CLEAR     46  46 100 CALM      29.95S
WASHINGTON CO* CLEAR     43  39  87 CALM      29.93S
$$

PAZ004>006-010>012-017>019-024>028-033>037-041-042-045-046-049>053-280600-
CENTRAL PENNSYLVANIA

CITY           SKY/WX    TMP DP  RH WIND       PRES   REMARKS
BRADFORD       CLEAR     43  41  93 SE3       29.96S
DUBOIS         CLEAR     52  41  66 SE8       29.95S
CLEARFIELD     CLEAR     42  42 100 NE3       29.98S
JOHNSTOWN      CLEAR     54  40  59 SW3       29.97F
ALTOONA        CLEAR     48  44  86 CALM      29.98S
STATE COLLEGE  CLEAR     48  45  90 CALM      29.98S
WILLIAMSPORT   CLEAR     51  49  92 CALM      29.97S
SELINSGROVE    CLEAR     49  49 100 NW3       29.98S
FT INDIANTOWN  CLEAR     51  51 100 CALM      29.98S
CAPITAL CITY   PTCLDY    55  51  86 CALM      29.97S
HARRISBURG     CLEAR     56  53  90 CALM      29.97R
YORK           CLEAR     51  51 100 CALM      29.97R
$$

PAZ038>040-043-044-047-048-054-055-060>062-067>071-280600-
EASTERN PENNSYLVANIA

CITY           SKY/WX    TMP DP  RH WIND       PRES   REMARKS
SCRANTON       CLEAR     53  47  79 E6        30.00R
MOUNT POCONO   CLEAR     44  42  93 CALM      30.02R
ALLENTOWN      CLEAR     50  46  86 N5        29.99R
QUAKERTOWN*    CLEAR     48  48 100 MISG      30.00S
READING        CLEAR     54  50  86 CALM      29.97S
LANCASTER      CLEAR     56  56 100 CALM      29.98R
COATESVILLE    CLEAR     55  54  94 CALM      30.00R
POTTSTOWN      CLEAR     52  50  93 CALM      30.00R
BLUE BELL      CLEAR     48  48 100 CALM      29.98R
DOYLESTOWN     CLEAR     54  51  90 CALM      29.99R
WILLOW GROVE   NOT AVBL
NORTH PHILA    CLEAR     58  55  90 N3        29.99R
PHILADELPHIA   PTCLDY    63  59  87 CALM      29.98R
$$




USA.gov is the U.S. government's official web portal to all federal, state and local government web resources and services.